Time,TemperatureF,DewpointF,PressureIn,WindDirection,WindDirectionDegrees,WindSpeedMPH,WindSpeedGustMPH,Humidity,HourlyPrecipIn,Conditions,Clouds,dailyrainin,SolarRadiationWatts/m^2,SoftwareType,DateUTC
2017-10-23 00:00:00,51.3,48.8,30.39,SE,132,0.0,0.0,91,0.00,,,0.00,0,Wunderground v.1.15,2017-10-23 04:00:00,
2017-10-23 00:05:00,51.3,49.1,30.39,SE,132,0.0,0.0,92,0.00,,,0.00,0,Wunderground v.1.15,2017-10-23 04:05:00,
2017-10-23 00:10:00,51.2,49.0,30.39,SE,132,0.0,0.0,92,0.00,,,0.00,0,Wunderground v.1.15,2017-10-23 04:10:00,
2017-10-23 00:15:00,51.1,48.9,30.38,SE,132,0.0,0.0,92,0.00,,,0.00,0,Wunderground v.1.15,2017-10-23 04:15:00,
2017-10-23 00:20:00,51.0,48.8,30.38,SE,132,0.0,0.0,92,0.00,,,0.00,0,Wunderground v.1.15,2017-10-23 04:20:00,
2017-10-23 00:25:00,50.9,48.7,30.38,SE,132,0.0,0.0,92,0.00,,,0.00,0,Wunderground v.1.15,2017-10-23 04:25:00,
2017-10-23 00:30:00,50.8,48.6,30.38,SE,132,0.0,0.0,92,0.00,,,0.00,0,Wunderground v.1.15,2017-10-23 04:30:00,
2017-10-23 00:35:00,50.7,48.5,30.38,SE,132,0.0,0.0,92,0.00,,,0.00,0,Wunderground v.1.15,2017-10-23 04:35:00,
2017-10-23 00:40:00,50.7,48.5,30.38,SE,132,0.0,0.0,92,0.00,,,0.00,0,Wunderground v.1.15,2017-10-23 04:40:00,
2017-10-23 00:45:00,50.6,48.4,30.38,SE,132,0.0,0.0,92,0.00,,,0.00,0,Wunderground v.1.15,2017-10-23 04:45:00,
2017-10-23 00:50:00,50.5,48.3,30.37,SE,132,0.0,0.0,92,0.00,,,0.00,0,Wunderground v.1.15,2017-10-23 04:50:00,
2017-10-23 01:00:00,50.4,48.2,30.38,SE,132,0.0,0.0,92,0.00,,,0.00,0,Wunderground v.1.15,2017-10-23 05:00:00,
2017-10-23 01:05:00,50.3,48.1,30.37,SE,132,0.0,0.0,92,0.00,,,0.00,0,Wunderground v.1.15,2017-10-23 05:05:00,
2017-10-23 01:10:00,50.2,48.0,30.37,SE,132,0.0,0.0,92,0.00,,,0.00,0,Wunderground v.1.15,2017-10-23 05:10:00,
2017-10-23 01:15:00,50.1,47.9,30.37,SE,132,0.0,0.0,92,0.00,,,0.00,0,Wunderground v.1.15,2017-10-23 05:15:00,
2017-10-23 01:20:00,50.1,47.9,30.37,SE,132,0.0,0.0,92,0.00,,,0.00,0,Wunderground v.1.15,2017-10-23 05:20:00,
2017-10-23 01:25:00,50.0,47.8,30.36,SE,132,0.0,0.0,92,0.00,,,0.00,0,Wunderground v.1.15,2017-10-23 05:25:00,
2017-10-23 01:30:00,49.9,47.7,30.36,SE,132,0.0,0.0,92,0.00,,,0.00,0,Wunderground v.1.15,2017-10-23 05:30:00,
2017-10-23 01:35:00,49.9,47.7,30.37,SE,132,0.0,0.0,92,0.00,,,0.00,0,Wunderground v.1.15,2017-10-23 05:35:00,
2017-10-23 01:40:00,49.8,47.9,30.37,SE,132,0.0,0.0,93,0.00,,,0.00,0,Wunderground v.1.15,2017-10-23 05:40:00,
2017-10-23 01:50:00,49.8,47.9,30.37,SE,132,0.0,0.0,93,0.00,,,0.00,0,Wunderground v.1.15,2017-10-23 05:50:00,
2017-10-23 01:55:00,49.7,47.8,30.36,SE,132,0.0,0.0,93,0.00,,,0.00,0,Wunderground v.1.15,2017-10-23 05:55:00,
2017-10-23 02:05:00,49.7,47.8,30.36,SE,132,0.0,0.0,93,0.00,,,0.00,0,Wunderground v.1.15,2017-10-23 06:05:00,
2017-10-23 02:10:00,49.7,47.8,30.36,SE,132,0.0,0.0,93,0.00,,,0.00,0,Wunderground v.1.15,2017-10-23 06:10:00,
2017-10-23 02:15:00,49.7,47.8,30.36,SE,132,0.0,0.0,93,0.00,,,0.00,0,Wunderground v.1.15,2017-10-23 06:15:00,
2017-10-23 02:20:00,49.7,47.8,30.36,SE,132,0.0,0.0,93,0.00,,,0.00,0,Wunderground v.1.15,2017-10-23 06:20:00,
2017-10-23 02:25:00,49.7,47.8,30.35,SE,132,0.0,0.0,93,0.00,,,0.00,0,Wunderground v.1.15,2017-10-23 06:25:00,
2017-10-23 02:30:00,49.7,47.8,30.36,SE,132,0.0,0.0,93,0.00,,,0.00,0,Wunderground v.1.15,2017-10-23 06:30:00,
2017-10-23 02:35:00,49.8,47.9,30.35,SE,132,0.0,0.0,93,0.00,,,0.00,0,Wunderground v.1.15,2017-10-23 06:35:00,
2017-10-23 02:40:00,49.9,48.2,30.35,SE,132,0.0,1.0,94,0.00,,,0.00,0,Wunderground v.1.15,2017-10-23 06:40:00,
2017-10-23 02:45:00,50.1,48.4,30.35,SE,132,1.0,1.0,94,0.00,,,0.00,0,Wunderground v.1.15,2017-10-23 06:45:00,
2017-10-23 02:50:00,50.3,48.6,30.34,SE,132,2.0,2.0,94,0.00,,,0.00,0,Wunderground v.1.15,2017-10-23 06:50:00,
2017-10-23 02:55:00,50.6,48.9,30.34,SE,132,1.0,2.0,94,0.00,,,0.00,0,Wunderground v.1.15,2017-10-23 06:55:00,
2017-10-23 03:05:00,51.7,50.3,30.34,SE,132,2.0,3.0,95,0.00,,,0.00,0,Wunderground v.1.15,2017-10-23 07:05:00,
2017-10-23 03:10:00,52.6,51.5,30.34,ESE,109,2.0,2.0,96,0.00,,,0.00,0,Wunderground v.1.15,2017-10-23 07:10:00,
2017-10-23 03:15:00,53.0,51.9,30.33,ESE,108,2.0,2.0,96,0.00,,,0.00,0,Wunderground v.1.15,2017-10-23 07:15:00,
2017-10-23 03:20:00,53.7,52.6,30.34,ESE,123,2.0,2.0,96,0.00,,,0.00,0,Wunderground v.1.15,2017-10-23 07:20:00,
2017-10-23 03:30:00,54.7,53.6,30.34,SE,125,1.0,1.0,96,0.00,,,0.00,0,Wunderground v.1.15,2017-10-23 07:30:00,
2017-10-23 03:35:00,55.0,53.9,30.34,SE,124,2.0,2.0,96,0.00,,,0.00,0,Wunderground v.1.15,2017-10-23 07:35:00,
2017-10-23 03:40:00,55.5,55.2,30.34,SE,127,2.0,3.0,99,0.00,,,0.00,0,Wunderground v.1.15,2017-10-23 07:40:00,
2017-10-23 03:45:00,55.7,54.6,30.33,SE,126,2.0,3.0,96,0.00,,,0.00,0,Wunderground v.1.15,2017-10-23 07:45:00,
2017-10-23 03:50:00,56.2,55.1,30.33,SE,134,2.0,4.0,96,0.00,,,0.00,0,Wunderground v.1.15,2017-10-23 07:50:00,
2017-10-23 03:55:00,56.5,55.4,30.33,SE,134,2.0,4.0,96,0.00,,,0.00,0,Wunderground v.1.15,2017-10-23 07:55:00,
2017-10-23 04:00:00,56.8,55.7,30.33,SE,134,2.0,2.0,96,0.00,,,0.00,0,Wunderground v.1.15,2017-10-23 08:00:00,
2017-10-23 04:10:00,57.2,56.1,30.33,SE,134,2.0,2.0,96,0.00,,,0.00,0,Wunderground v.1.15,2017-10-23 08:10:00,
2017-10-23 04:15:00,57.3,56.2,30.33,SE,134,1.0,2.0,96,0.00,,,0.00,0,Wunderground v.1.15,2017-10-23 08:15:00,
2017-10-23 04:20:00,57.5,56.4,30.33,SE,134,2.0,2.0,96,0.00,,,0.00,0,Wunderground v.1.15,2017-10-23 08:20:00,
2017-10-23 04:25:00,57.7,56.6,30.33,SE,134,2.0,2.0,96,0.00,,,0.00,0,Wunderground v.1.15,2017-10-23 08:25:00,
2017-10-23 04:30:00,57.9,56.8,30.33,SE,134,1.0,1.0,96,0.00,,,0.00,0,Wunderground v.1.15,2017-10-23 08:30:00,
2017-10-23 04:35:00,58.0,57.2,30.34,SE,134,1.0,1.0,97,0.00,,,0.00,0,Wunderground v.1.15,2017-10-23 08:35:00,
2017-10-23 04:40:00,58.1,57.0,30.34,SE,134,1.0,1.0,96,0.00,,,0.00,0,Wunderground v.1.15,2017-10-23 08:40:00,
2017-10-23 04:45:00,58.1,57.0,30.33,SE,134,1.0,1.0,96,0.00,,,0.00,0,Wunderground v.1.15,2017-10-23 08:45:00,
2017-10-23 04:50:00,58.2,57.1,30.34,SE,134,1.0,1.0,96,0.00,,,0.00,0,Wunderground v.1.15,2017-10-23 08:50:00,
2017-10-23 05:00:00,58.3,57.2,30.34,SE,134,1.0,1.0,96,0.00,,,0.00,0,Wunderground v.1.15,2017-10-23 09:00:00,
2017-10-23 05:10:00,58.2,57.1,30.34,SE,134,1.0,1.0,96,0.00,,,0.00,0,Wunderground v.1.15,2017-10-23 09:10:00,
2017-10-23 05:15:00,58.1,57.0,30.34,SE,134,1.0,1.0,96,0.00,,,0.00,0,Wunderground v.1.15,2017-10-23 09:15:00,
2017-10-23 05:20:00,58.1,57.0,30.34,SE,134,1.0,1.0,96,0.00,,,0.00,0,Wunderground v.1.15,2017-10-23 09:20:00,
2017-10-23 05:25:00,58.0,56.9,30.33,SE,134,1.0,1.0,96,0.00,,,0.00,0,Wunderground v.1.15,2017-10-23 09:25:00,
2017-10-23 05:35:00,57.9,56.8,30.34,SE,134,1.0,1.0,96,0.00,,,0.00,0,Wunderground v.1.15,2017-10-23 09:35:00,
2017-10-23 05:40:00,57.9,56.8,30.33,SE,134,1.0,1.0,96,0.00,,,0.00,0,Wunderground v.1.15,2017-10-23 09:40:00,
2017-10-23 05:45:00,57.9,56.8,30.33,SE,134,1.0,2.0,96,0.00,,,0.00,0,Wunderground v.1.15,2017-10-23 09:45:00,
2017-10-23 05:50:00,57.8,56.7,30.33,SE,134,1.0,1.0,96,0.00,,,0.00,0,Wunderground v.1.15,2017-10-23 09:50:00,
2017-10-23 05:55:00,57.8,56.7,30.33,SE,134,1.0,3.0,96,0.00,,,0.00,0,Wunderground v.1.15,2017-10-23 09:55:00,
2017-10-23 06:00:00,57.7,56.6,30.33,SE,134,1.0,2.0,96,0.00,,,0.00,0,Wunderground v.1.15,2017-10-23 10:00:00,
2017-10-23 06:05:00,57.7,56.6,30.33,SE,134,1.0,2.0,96,0.00,,,0.00,0,Wunderground v.1.15,2017-10-23 10:05:00,
2017-10-23 06:15:00,57.7,56.6,30.33,SE,134,1.0,1.0,96,0.00,,,0.00,0,Wunderground v.1.15,2017-10-23 10:15:00,
2017-10-23 06:20:00,57.8,57.0,30.33,SE,134,1.0,1.0,97,0.00,,,0.00,0,Wunderground v.1.15,2017-10-23 10:20:00,
2017-10-23 06:30:00,57.8,57.0,30.33,SE,134,1.0,1.0,97,0.00,,,0.00,0,Wunderground v.1.15,2017-10-23 10:30:00,
2017-10-23 06:35:00,57.9,57.1,30.33,SE,134,2.0,2.0,97,0.00,,,0.00,0,Wunderground v.1.15,2017-10-23 10:35:00,
2017-10-23 06:40:00,58.0,57.2,30.33,SE,134,2.0,3.0,97,0.00,,,0.00,0,Wunderground v.1.15,2017-10-23 10:40:00,
2017-10-23 06:45:00,58.0,57.2,30.32,SE,134,2.0,3.0,97,0.00,,,0.00,0,Wunderground v.1.15,2017-10-23 10:45:00,
2017-10-23 06:50:00,58.1,57.3,30.32,SE,134,2.0,2.0,97,0.00,,,0.00,0,Wunderground v.1.15,2017-10-23 10:50:00,
2017-10-23 07:00:00,58.3,57.5,30.32,SE,134,1.0,2.0,97,0.00,,,0.00,0,Wunderground v.1.15,2017-10-23 11:00:00,
2017-10-23 07:05:00,58.4,57.6,30.32,SE,134,1.0,2.0,97,0.00,,,0.00,0,Wunderground v.1.15,2017-10-23 11:05:00,
2017-10-23 07:10:00,58.4,57.6,30.32,SE,134,1.0,2.0,97,0.00,,,0.00,0,Wunderground v.1.15,2017-10-23 11:10:00,
2017-10-23 07:20:00,58.5,57.7,30.32,SE,134,2.0,3.0,97,0.00,,,0.00,5,Wunderground v.1.15,2017-10-23 11:20:00,
2017-10-23 07:25:00,58.6,57.8,30.32,SE,134,2.0,3.0,97,0.00,,,0.00,7,Wunderground v.1.15,2017-10-23 11:25:00,
2017-10-23 07:30:00,58.6,57.8,30.32,ESE,117,2.0,3.0,97,0.00,,,0.00,9,Wunderground v.1.15,2017-10-23 11:30:00,
2017-10-23 07:35:00,58.8,58.0,30.32,ESE,117,2.0,3.0,97,0.00,,,0.00,11,Wunderground v.1.15,2017-10-23 11:35:00,
2017-10-23 07:40:00,58.9,58.1,30.32,ESE,117,2.0,2.0,97,0.00,,,0.00,12,Wunderground v.1.15,2017-10-23 11:40:00,
2017-10-23 07:50:00,59.3,58.4,30.32,ESE,117,2.0,3.0,97,0.00,,,0.00,25,Wunderground v.1.15,2017-10-23 11:50:00,
2017-10-23 07:55:00,59.4,58.5,30.32,ESE,117,2.0,3.0,97,0.00,,,0.00,32,Wunderground v.1.15,2017-10-23 11:55:00,
2017-10-23 08:00:00,59.5,58.6,30.32,ESE,117,2.0,2.0,97,0.00,,,0.00,35,Wunderground v.1.15,2017-10-23 12:00:00,
2017-10-23 08:05:00,59.9,59.0,30.32,ESE,112,3.0,3.0,97,0.00,,,0.00,51,Wunderground v.1.15,2017-10-23 12:05:00,
2017-10-23 08:10:00,60.2,59.6,30.32,ESE,111,2.0,2.0,98,0.00,,,0.00,44,Wunderground v.1.15,2017-10-23 12:10:00,
2017-10-23 08:15:00,60.4,59.8,30.32,East,99,2.0,2.0,98,0.00,,,0.00,84,Wunderground v.1.15,2017-10-23 12:15:00,
2017-10-23 08:20:00,60.8,60.2,30.32,ESE,107,2.0,2.0,98,0.00,,,0.00,67,Wunderground v.1.15,2017-10-23 12:20:00,
2017-10-23 08:30:00,61.3,60.7,30.32,ESE,115,2.0,3.0,98,0.00,,,0.00,113,Wunderground v.1.15,2017-10-23 12:30:00,
2017-10-23 08:35:00,61.6,61.0,30.32,ESE,117,2.0,3.0,98,0.00,,,0.00,141,Wunderground v.1.15,2017-10-23 12:35:00,
2017-10-23 08:40:00,61.8,61.2,30.32,ESE,118,2.0,4.0,98,0.00,,,0.00,186,Wunderground v.1.15,2017-10-23 12:40:00,
2017-10-23 08:45:00,62.1,61.5,30.32,ESE,113,3.0,4.0,98,0.00,,,0.00,202,Wunderground v.1.15,2017-10-23 12:45:00,
2017-10-23 08:50:00,62.5,61.9,30.32,ESE,112,3.0,3.0,98,0.00,,,0.00,220,Wunderground v.1.15,2017-10-23 12:50:00,
2017-10-23 09:05:00,63.6,63.0,30.31,East,85,4.0,5.0,98,0.00,,,0.00,262,Wunderground v.1.15,2017-10-23 13:05:00,
2017-10-23 09:10:00,63.8,63.2,30.31,East,101,4.0,6.0,98,0.00,,,0.00,278,Wunderground v.1.15,2017-10-23 13:10:00,
2017-10-23 09:15:00,64.1,63.5,30.31,SE,135,5.0,8.0,98,0.00,,,0.00,265,Wunderground v.1.15,2017-10-23 13:15:00,
2017-10-23 09:25:00,64.4,63.8,30.31,ESE,116,5.0,13.0,98,0.00,,,0.00,309,Wunderground v.1.15,2017-10-23 13:25:00,
2017-10-23 09:30:00,64.7,64.1,30.31,ESE,113,4.0,4.0,98,0.00,,,0.00,334,Wunderground v.1.15,2017-10-23 13:30:00,
2017-10-23 09:35:00,65.0,64.4,30.31,ESE,118,4.0,5.0,98,0.00,,,0.00,343,Wunderground v.1.15,2017-10-23 13:35:00,
2017-10-23 09:40:00,65.5,64.9,30.31,SE,125,4.0,4.0,98,0.00,,,0.00,325,Wunderground v.1.15,2017-10-23 13:40:00,
2017-10-23 09:50:00,66.2,65.3,30.30,SE,136,4.0,6.0,97,0.00,,,0.00,355,Wunderground v.1.15,2017-10-23 13:50:00,
2017-10-23 09:55:00,66.4,65.2,30.30,SSE,158,4.0,6.0,96,0.00,,,0.00,417,Wunderground v.1.15,2017-10-23 13:55:00,
2017-10-23 10:00:00,66.6,65.4,30.30,ESE,103,4.0,4.0,96,0.00,,,0.00,459,Wunderground v.1.15,2017-10-23 14:00:00,
2017-10-23 10:05:00,66.9,65.4,30.29,East,82,4.0,4.0,95,0.00,,,0.00,454,Wunderground v.1.15,2017-10-23 14:05:00,
2017-10-23 10:10:00,67.2,65.4,30.29,SW,224,4.0,4.0,94,0.00,,,0.00,153,Wunderground v.1.15,2017-10-23 14:10:00,
2017-10-23 10:20:00,67.8,65.7,30.29,ESE,115,3.0,3.0,93,0.00,,,0.00,513,Wunderground v.1.15,2017-10-23 14:20:00,
2017-10-23 10:30:00,68.5,65.8,30.29,South,186,2.0,3.0,91,0.00,,,0.00,236,Wunderground v.1.15,2017-10-23 14:30:00,
2017-10-23 10:40:00,69.3,65.3,30.28,ESE,117,4.0,7.0,87,0.00,,,0.00,622,Wunderground v.1.15,2017-10-23 14:40:00,
2017-10-23 10:45:00,69.9,65.5,30.28,WSW,238,4.0,7.0,86,0.00,,,0.00,613,Wunderground v.1.15,2017-10-23 14:45:00,
2017-10-23 10:50:00,70.8,66.4,30.28,ESE,107,3.0,5.0,86,0.00,,,0.00,149,Wunderground v.1.15,2017-10-23 14:50:00,
2017-10-23 10:55:00,70.9,65.5,30.28,ESE,115,4.0,7.0,83,0.00,,,0.00,647,Wunderground v.1.15,2017-10-23 14:55:00,
2017-10-23 11:00:00,71.1,65.7,30.28,East,84,4.0,4.0,83,0.00,,,0.00,635,Wunderground v.1.15,2017-10-23 15:00:00,
2017-10-23 11:05:00,71.4,66.0,30.27,SSE,161,3.0,4.0,83,0.00,,,0.00,668,Wunderground v.1.15,2017-10-23 15:05:00,
2017-10-23 11:10:00,71.7,65.6,30.27,SE,124,4.0,4.0,81,0.00,,,0.00,642,Wunderground v.1.15,2017-10-23 15:10:00,
2017-10-23 11:15:00,72.0,65.8,30.27,SE,134,4.0,4.0,81,0.00,,,0.00,587,Wunderground v.1.15,2017-10-23 15:15:00,
2017-10-23 11:25:00,72.3,65.4,30.27,ESE,115,5.0,10.0,79,0.00,,,0.00,552,Wunderground v.1.15,2017-10-23 15:25:00,
2017-10-23 11:30:00,72.4,65.2,30.27,SSE,156,6.0,6.0,78,0.00,,,0.00,538,Wunderground v.1.15,2017-10-23 15:30:00,
2017-10-23 11:35:00,72.4,65.2,30.27,South,185,5.0,6.0,78,0.00,,,0.00,188,Wunderground v.1.15,2017-10-23 15:35:00,
2017-10-23 11:40:00,72.4,65.5,30.27,ESE,108,4.0,4.0,79,0.00,,,0.00,193,Wunderground v.1.15,2017-10-23 15:40:00,
2017-10-23 11:45:00,72.2,65.0,30.27,ESE,106,5.0,7.0,78,0.00,,,0.00,178,Wunderground v.1.15,2017-10-23 15:45:00,
2017-10-23 11:50:00,72.0,65.1,30.27,SSE,155,5.0,5.0,79,0.00,,,0.00,243,Wunderground v.1.15,2017-10-23 15:50:00,